Powrót do katalogu

ATLAS 5 CENTAUR DEB

LostHEO
NORAD 46851·DEBRIS·🇺🇸 United States

Wystrzelony Oct 17, 2018 z Cape Canaveral Space Force Station

Loading…

Następne Przeloty (najbliższe 24 godziny)

TLE

NieaktualneSource: Space-Track

Epoka: Jan 16, 2021, 19:40 UTC

1 46851U 18079DG  21016.82004696 -.00000086  00000-0  00000+0 0  9998
2 46851  11.1242 241.6438 4031806 326.6431  13.4583  1.96853897  1508

Śledź ATLAS 5 CENTAUR DEB w czasie rzeczywistym z AllMySat

Download on the App Store